GW1833 Weather Reports


Display with metric or nautical units.
time (UTC)temp
F
wind
direction
speed
MPH
gust
MPH
rain 1hr
in
rain 24hr
in
rain mn
in
humidity
%
barometer
mb
20260508053042 66 37 2.0 5.0 0.00 0.00 0.00 67 1018.5
20260508052531 65 0 1.0 4.0 0.00 0.00 0.00 63 1018.6
20260508052034 65 61 1.0 4.0 0.00 0.00 0.00 63 1018.6
20260508051550 65 60 1.0 4.0 0.00 0.00 0.00 63 1018.6
20260508051031 64 60 2.0 5.0 0.00 0.00 0.00 63 1018.5
20260508050531 64 0 2.0 5.0 0.00 0.00 0.00 63 1018.6
20260508050045 64 63 0.0 4.0 0.00 0.00 0.00 65 1018.7
20260508045530 64 63 1.0 4.0 0.00 0.00 0.00 65 1018.6
20260508045030 64 64 1.0 5.0 0.00 0.00 0.00 65 1018.6
20260508044543 64 60 1.0 5.0 0.00 0.00 0.00 63 1018.6
20260508044042 64 67 1.0 4.0 0.00 0.00 0.00 62 1018.5
20260508043530 64 0 2.0 4.0 0.00 0.00 0.00 59 1018.6
20260508043046 63 0 0.0 3.0 0.00 0.00 0.00 60 1018.4
20260508042531 63 80 1.0 4.0 0.00 0.00 0.00 59 1018.4
20260508042030 62 0 2.0 6.0 0.00 0.00 0.00 59 1018.4
20260508041540 61 87 2.0 6.0 0.00 0.00 0.00 59 1018.4
20260508041030 61 81 2.0 4.0 0.00 0.00 0.00 63 1018.5
20260508040532 60 74 2.0 4.0 0.00 0.00 0.00 67 1018.4
20260508040049 60 74 2.0 4.0 0.00 0.00 0.00 68 1018.4
20260508035532 60 74 1.0 4.0 0.00 0.00 0.00 69 1018.3
20260508035032 60 73 1.0 3.0 0.00 0.00 0.00 70 1018.4
20260508034549 60 73 1.0 4.0 0.00 0.00 0.00 70 1018.5
20260508034033 60 73 2.0 4.0 0.00 0.00 0.00 70 1018.5
20260508033531 59 75 2.0 4.0 0.00 0.00 0.00 69 1018.5
20260508033043 59 73 2.0 4.0 0.00 0.00 0.00 68 1018.5
20260508032531 59 71 2.0 4.0 0.00 0.00 0.00 66 1018.3
20260508032031 59 63 0.0 1.0 0.00 0.00 0.00 66 1018.4
20260508031543 59 0 0.0 4.0 0.00 0.00 0.00 66 1018.4
20260508031030 59 0 0.0 4.0 0.00 0.00 0.00 66 1018.3
20260508030531 59 63 2.0 4.0 0.00 0.00 0.00 67 1018.3
20260508030045 59 63 1.0 4.0 0.00 0.00 0.00 69 1018.3
20260508025532 59 62 3.0 4.0 0.00 0.00 0.00 71 1018.3
20260508025031 59 61 2.0 4.0 0.00 0.00 0.00 71 1018.4
20260508024550 59 62 2.0 4.0 0.00 0.00 0.00 71 1018.4
20260508024030 59 71 2.0 4.0 0.00 0.00 0.00 68 1018.4
20260508023533 59 0 1.0 4.0 0.00 0.00 0.00 67 1018.4
20260508023049 59 84 2.0 4.0 0.00 0.00 0.00 68 1018.4
20260508022530 59 84 2.0 4.0 0.00 0.00 0.00 69 1018.4
20260508022031 59 84 1.0 4.0 0.00 0.00 0.00 70 1018.5
20260508021548 59 84 2.0 4.0 0.00 0.00 0.00 71 1018.5
20260508021030 59 86 2.0 6.0 0.00 0.00 0.00 73 1018.6
20260508020530 59 89 2.0 6.0 0.00 0.00 0.00 75 1018.7
20260508020041 59 90 2.0 6.0 0.00 0.00 0.00 76 1018.7
20260508015531 58 0 2.0 6.0 0.00 0.00 0.00 75 1018.7
20260508015032 58 94 3.0 6.0 0.00 0.00 0.00 76 1018.6
20260508014549 58 146 1.0 5.0 0.00 0.00 0.00 78 1018.6
20260508014031 58 157 0.0 4.0 0.00 0.00 0.00 77 1018.8
20260508013530 58 159 2.0 4.0 0.00 0.00 0.00 78 1018.7
20260508013047 58 163 2.0 4.0 0.00 0.00 0.00 78 1018.7
20260508012532 58 169 1.0 2.0 0.00 0.00 0.00 76 1018.8
20260508012031 58 0 0.0 0.0 0.00 0.00 0.00 75 1018.9
20260508011547 58 0 0.0 0.0 0.00 0.00 0.00 73 1018.9
20260508011031 58 0 0.0 1.0 0.00 0.00 0.00 72 1018.9
20260508010530 58 0 0.0 1.0 0.00 0.00 0.00 71 1018.9
20260508010044 59 0 0.0 5.0 0.00 0.00 0.00 71 1018.8
20260508005534 59 0 0.0 5.0 0.00 0.00 0.00 71 1018.9
20260508005029 60 0 0.0 3.0 0.00 0.00 0.00 74 1018.6
20260508004542 60 79 1.0 8.0 0.00 0.00 0.00 74 1018.6
20260508004033 60 80 1.0 8.0 0.00 0.00 0.00 74 1018.6
20260508003532 60 59 4.0 8.0 0.00 0.00 0.00 75 1018.7
20260508003057 59 70 3.0 5.0 0.00 0.00 0.00 73 1018.7
20260508002531 59 80 0.0 3.0 0.00 0.00 0.00 72 1018.7
20260508002034 59 0 1.0 3.0 0.00 0.00 0.00 72 1018.6
20260508001547 59 80 2.0 3.0 0.00 0.00 0.00 71 1018.6
20260508001031 59 79 2.0 3.0 0.00 0.00 0.00 70 1018.7
20260508000532 59 80 1.0 3.0 0.00 0.00 0.00 71 1018.8
20260508000046 59 74 2.0 3.0 0.00 0.00 0.00 71 1018.8
20260507235530 59 75 1.0 3.0 0.00 0.00 0.00 72 1019.1
20260507235031 59 75 2.0 3.0 0.00 0.00 0.00 74 1019.0
20260507234541 59 0 1.0 3.0 0.00 0.00 0.00 77 1019.1
20260507234030 59 0 0.0 3.0 0.00 0.00 0.00 76 1019.2
20260507233533 59 75 1.0 3.0 0.00 0.00 0.00 76 1019.2
20260507233042 59 75 0.0 1.0 0.00 0.00 0.00 75 1019.3
20260507232531 59 0 0.0 0.0 0.00 0.00 0.00 75 1019.2
20260507232030 59 0 0.0 0.0 0.00 0.00 0.00 74 1019.2
20260507231546 59 0 0.0 0.0 0.00 0.00 0.00 74 1019.2
20260507231032 59 0 0.0 0.0 0.00 0.00 0.00 73 1019.2
20260507230533 59 0 0.0 0.0 0.00 0.00 0.00 73 1019.2
20260507230044 60 0 0.0 0.0 0.00 0.00 0.00 72 1019.2
20260507225532 60 0 0.0 0.0 0.00 0.00 0.00 72 1019.3
20260507225031 60 0 0.0 0.0 0.00 0.00 0.00 71 1019.4
20260507224559 60 0 0.0 1.0 0.00 0.00 0.00 70 1019.4
20260507224030 60 0 0.0 1.0 0.00 0.00 0.00 70 1019.3
20260507223530 60 0 0.0 2.0 0.00 0.00 0.00 69 1019.3
20260507223051 60 0 0.0 2.0 0.00 0.00 0.00 68 1019.4
20260507222529 60 0 0.0 2.0 0.00 0.00 0.00 66 1019.5
20260507222032 60 0 0.0 4.0 0.00 0.00 0.00 66 1019.4
20260507221541 60 0 1.0 4.0 0.00 0.00 0.00 66 1019.5
20260507221032 60 75 1.0 3.0 0.00 0.00 0.00 64 1019.4
20260507220532 60 79 2.0 3.0 0.00 0.00 0.00 63 1019.3
20260507220046 60 82 1.0 2.0 0.00 0.00 0.00 59 1019.3
20260507215532 60 0 0.0 0.0 0.00 0.00 0.00 56 1019.4
20260507215030 59 0 0.0 0.0 0.00 0.00 0.00 54 1019.4
20260507214545 59 0 0.0 0.0 0.00 0.00 0.00 53 1019.4
20260507214030 60 0 0.0 0.0 0.00 0.00 0.00 54 1019.3
20260507213533 60 0 0.0 1.0 0.00 0.00 0.00 55 1019.3
20260507213043 60 0 0.0 1.0 0.00 0.00 0.00 54 1019.3
20260507212530 60 0 0.0 2.0 0.00 0.00 0.00 55 1019.3
20260507212030 60 0 0.0 2.0 0.00 0.00 0.00 56 1019.3
20260507211559 60 0 0.0 0.0 0.00 0.00 0.00 56 1019.4
20260507211030 60 0 0.0 0.0 0.00 0.00 0.00 56 1019.5
20260507210530 60 0 0.0 0.0 0.00 0.00 0.00 57 1019.5
20260507210042 60 0 0.0 0.0 0.00 0.00 0.00 56 1019.5
20260507205532 60 0 0.0 1.0 0.00 0.00 0.00 55 1019.5
20260507205035 60 0 0.0 1.0 0.00 0.00 0.00 57 1019.6
20260507204543 60 0 0.0 0.0 0.00 0.00 0.00 57 1019.6
20260507204030 61 0 0.0 0.0 0.00 0.00 0.00 56 1019.6
20260507203532 61 0 0.0 0.0 0.00 0.00 0.00 56 1019.7
20260507203047 61 0 0.0 0.0 0.00 0.00 0.00 56 1019.7
20260507202529 61 0 0.0 0.0 0.00 0.00 0.00 55 1019.6
20260507202030 61 0 0.0 3.0 0.00 0.00 0.00 54 1019.7
20260507201542 62 0 0.0 3.0 0.00 0.00 0.00 54 1019.6
20260507201030 61 86 1.0 3.0 0.00 0.00 0.00 53 1019.5
20260507200531 61 85 0.0 2.0 0.00 0.00 0.00 52 1019.6
20260507200044 61 82 0.0 2.0 0.00 0.00 0.00 53 1019.7
20260507195532 61 82 0.0 2.0 0.00 0.00 0.00 56 1019.4
20260507195030 61 0 0.0 2.0 0.00 0.00 0.00 58 1019.6
20260507194541 62 84 1.0 3.0 0.00 0.00 0.00 59 1019.5
20260507194030 62 84 0.0 4.0 0.00 0.00 0.00 60 1019.5
20260507193532 62 84 1.0 4.0 0.00 0.00 0.00 60 1019.6
20260507193046 62 84 1.0 4.0 0.00 0.00 0.00 62 1019.5
20260507192530 62 78 1.0 3.0 0.00 0.00 0.00 62 1019.7
20260507192032 62 78 1.0 3.0 0.00 0.00 0.00 62 1019.7
20260507191550 62 0 0.0 1.0 0.00 0.00 0.00 62 1019.7
20260507191030 62 0 0.0 1.0 0.00 0.00 0.00 61 1019.6
20260507190532 62 0 0.0 0.0 0.00 0.00 0.00 61 1019.7
20260507190043 63 0 0.0 2.0 0.00 0.00 0.00 60 1019.7
20260507185531 63 0 0.0 2.0 0.00 0.00 0.00 60 1019.7
20260507185032 63 0 0.0 0.0 0.00 0.00 0.00 60 1019.5
20260507184541 63 0 0.0 1.0 0.00 0.00 0.00 60 1019.4
20260507184030 64 0 0.0 1.0 0.00 0.00 0.00 59 1019.4
20260507183530 64 0 0.0 0.0 0.00 0.00 0.00 59 1019.4
20260507183041 65 0 0.0 0.0 0.00 0.00 0.00 59 1019.4
20260507182529 65 0 0.0 2.0 0.00 0.00 0.00 58 1019.2
20260507182030 65 0 0.0 2.0 0.00 0.00 0.00 57 1019.3
20260507181540 65 0 0.0 2.0 0.00 0.00 0.00 58 1019.3
20260507181033 66 0 0.0 1.0 0.00 0.00 0.00 56 1019.2
20260507180530 66 0 0.0 2.0 0.00 0.00 0.00 57 1019.1
20260507180048 66 0 0.0 3.0 0.00 0.00 0.00 57 1019.2
20260507175532 66 78 1.0 3.0 0.00 0.00 0.00 56 1019.0
20260507175030 67 78 0.0 2.0 0.00 0.00 0.00 56 1019.1
20260507174543 67 0 0.0 4.0 0.00 0.00 0.00 55 1019.1
20260507174030 67 0 0.0 4.0 0.00 0.00 0.00 55 1018.9
20260507173531 67 77 0.0 4.0 0.00 0.00 0.00 55 1018.9
20260507173043 67 88 2.0 5.0 0.00 0.00 0.00 55 1018.9
20260507172531 67 76 3.0 5.0 0.00 0.00 0.00 54 1018.8
20260507172030 67 49 2.0 4.0 0.00 0.00 0.00 55 1018.8
20260507171542 67 55 1.0 4.0 0.00 0.00 0.00 54 1018.7
20260507171029 68 69 1.0 3.0 0.00 0.00 0.00 53 1018.6
20260507170529 68 67 2.0 5.0 0.00 0.00 0.00 51 1018.5
20260507170042 68 67 2.0 5.0 0.00 0.00 0.00 52 1018.5
20260507165534 68 67 2.0 4.0 0.00 0.00 0.00 52 1018.5
20260507165031 68 71 2.0 4.0 0.00 0.00 0.00 51 1018.5
20260507164547 68 0 1.0 3.0 0.00 0.00 0.00 50 1018.5
20260507164029 68 0 1.0 3.0 0.00 0.00 0.00 51 1018.6
20260507163529 68 63 1.0 3.0 0.00 0.00 0.00 51 1018.6
20260507163046 68 57 0.0 3.0 0.00 0.00 0.00 52 1018.6
20260507162534 69 0 1.0 3.0 0.00 0.00 0.00 52 1018.6
20260507162032 69 0 0.0 2.0 0.00 0.00 0.00 52 1018.6
20260507161545 69 0 0.0 2.0 0.00 0.00 0.00 51 1018.6
20260507161029 69 57 0.0 3.0 0.00 0.00 0.00 51 1018.6
20260507160531 70 0 0.0 3.0 0.00 0.00 0.00 51 1018.5
20260507160045 70 66 0.0 3.0 0.00 0.00 0.00 50 1018.7
20260507155529 71 0 0.0 4.0 0.00 0.00 0.00 50 1018.6
20260507155031 71 64 1.0 4.0 0.00 0.00 0.00 50 1018.6
20260507154544 72 0 0.0 3.0 0.00 0.00 0.00 49 1018.7
20260507154032 73 22 0.0 3.0 0.00 0.00 0.00 47 1018.8
20260507153530 73 0 0.0 3.0 0.00 0.00 0.00 45 1018.8
20260507153041 74 22 0.0 2.0 0.00 0.00 0.00 44 1018.8
20260507152530 74 349 1.0 2.0 0.00 0.00 0.00 43 1018.7
20260507152031 75 0 0.0 0.0 0.00 0.00 0.00 44 1018.8
20260507151547 74 0 0.0 3.0 0.00 0.00 0.00 43 1018.7
20260507151030 74 0 0.0 3.0 0.00 0.00 0.00 42 1018.9
20260507150531 74 351 0.0 4.0 0.00 0.00 0.00 44 1018.8
20260507150045 75 0 0.0 4.0 0.00 0.00 0.00 45 1018.9
20260507145531 75 331 1.0 5.0 0.00 0.00 0.00 44 1018.9
20260507145030 75 349 2.0 5.0 0.00 0.00 0.00 44 1019.1
20260507144542 75 289 1.0 4.0 0.00 0.00 0.00 45 1019.1
20260507144030 76 300 2.0 5.0 0.00 0.00 0.00 43 1019.1
20260507143530 76 324 2.0 5.0 0.00 0.00 0.00 42 1019.2
20260507143043 76 328 2.0 5.0 0.00 0.00 0.00 44 1019.2
20260507142530 75 339 1.0 4.0 0.00 0.00 0.00 47 1019.2
20260507142030 75 232 1.0 4.0 0.00 0.00 0.00 47 1019.3
20260507141539 75 0 0.0 4.0 0.00 0.00 0.00 47 1019.3
20260507141030 75 22 1.0 4.0 0.00 0.00 0.00 46 1019.2
20260507140529 75 0 1.0 4.0 0.00 0.00 0.00 46 1019.3
20260507140101 75 346 0.0 4.0 0.00 0.00 0.00 48 1019.3
20260507135530 75 5 1.0 4.0 0.00 0.00 0.00 48 1019.1
20260507135030 75 360 1.0 3.0 0.00 0.00 0.00 49 1019.1
20260507134546 75 332 1.0 4.0 0.00 0.00 0.00 49 1019.1
20260507134032 75 333 1.0 4.0 0.00 0.00 0.00 50 1019.2
20260507133530 75 0 0.0 4.0 0.00 0.00 0.00 49 1019.3
20260507133043 75 223 2.0 6.0 0.00 0.00 0.00 45 1019.4
20260507132529 74 244 3.0 6.0 0.00 0.00 0.00 46 1019.3
20260507132029 74 234 1.0 4.0 0.00 0.00 0.00 51 1019.5
20260507131546 73 5 0.0 2.0 0.00 0.00 0.00 54 1019.5
20260507131030 72 0 0.0 3.0 0.00 0.00 0.00 56 1019.5
20260507130531 72 0 1.0 3.0 0.00 0.00 0.00 57 1019.5
20260507130042 71 42 0.0 3.0 0.00 0.00 0.00 59 1019.5
20260507125531 71 39 0.0 4.0 0.00 0.00 0.00 60 1019.3
20260507125030 70 53 1.0 4.0 0.00 0.00 0.00 61 1019.3
20260507124540 70 43 2.0 6.0 0.00 0.00 0.00 61 1019.4
20260507124030 70 31 2.0 6.0 0.00 0.00 0.00 62 1019.3
20260507123734 69 36 3.0 6.0 0.00 0.00 0.00 62 1019.2
20260507115033 70 44 3.0 9.0 0.00 0.00 0.00 59 1019.3
20260507114542 71 17 4.0 9.0 0.00 0.00 0.00 58 1019.2
20260507114029 71 10 4.0 8.0 0.00 0.00 0.00 58 1019.3
20260507113531 71 63 4.0 11.0 0.00 0.00 0.00 58 1019.2
20260507113042 71 49 4.0 11.0 0.00 0.00 0.00 58 1019.3
20260507112533 71 339 5.0 11.0 0.00 0.00 0.00 57 1019.4
20260507112032 72 0 4.0 9.0 0.00 0.00 0.00 59 1019.3
20260507111545 72 46 4.0 10.0 0.00 0.00 0.00 58 1019.3
20260507111030 71 56 6.0 10.0 0.00 0.00 0.00 57 1019.2
20260507110529 71 69 5.0 10.0 0.00 0.00 0.00 58 1019.3
20260507110051 71 34 5.0 11.0 0.00 0.00 0.00 59 1019.4
20260507105529 71 35 4.0 11.0 0.00 0.00 0.00 58 1019.3
20260507105031 71 38 3.0 9.0 0.00 0.00 0.00 60 1019.3
20260507104546 71 73 4.0 9.0 0.00 0.00 0.00 60 1019.3
20260507104030 71 67 3.0 9.0 0.00 0.00 0.00 60 1019.3
20260507103529 71 59 4.0 9.0 0.00 0.00 0.00 61 1019.3
20260507103043 71 40 2.0 9.0 0.00 0.00 0.00 61 1019.4
20260507102530 70 83 4.0 9.0 0.00 0.00 0.00 61 1019.3
20260507102029 70 63 4.0 10.0 0.00 0.00 0.00 60 1019.2
20260507101558 70 98 5.0 10.0 0.00 0.00 0.00 60 1019.2
20260507101030 70 57 5.0 10.0 0.00 0.00 0.00 60 1019.3
20260507100529 70 76 4.0 11.0 0.00 0.00 0.00 61 1019.3
20260507100047 70 27 5.0 11.0 0.00 0.00 0.00 60 1019.3
20260507095532 70 54 5.0 10.0 0.00 0.00 0.00 60 1019.2
20260507095030 70 5 5.0 10.0 0.00 0.00 0.00 59 1019.3
20260507094556 70 53 3.0 11.0 0.00 0.00 0.00 60 1019.2
20260507094031 70 71 5.0 11.0 0.00 0.00 0.00 58 1019.2
20260507093531 71 50 6.0 11.0 0.00 0.00 0.00 57 1019.2
20260507093046 71 74 4.0 11.0 0.00 0.00 0.00 58 1019.2
20260507092534 71 35 6.0 11.0 0.00 0.00 0.00 58 1019.2
20260507092029 71 32 4.0 10.0 0.00 0.00 0.00 60 1019.1
20260507091558 70 24 3.0 10.0 0.00 0.00 0.00 62 1019.2
20260507091029 70 34 5.0 10.0 0.00 0.00 0.00 62 1019.1
20260507090533 70 50 5.0 12.0 0.00 0.00 0.00 63 1019.2
20260507090105 69 42 6.0 12.0 0.00 0.00 0.00 63 1019.3
20260507085529 69 36 5.0 12.0 0.00 0.00 0.00 64 1019.4
20260507085030 69 44 6.0 12.0 0.00 0.00 0.00 64 1019.3
20260507084541 68 56 5.0 11.0 0.00 0.00 0.00 66 1019.4
20260507084030 68 34 6.0 11.0 0.00 0.00 0.00 68 1019.5
20260507083529 67 43 5.0 13.0 0.00 0.00 0.00 68 1019.4
20260507083047 67 57 6.0 13.0 0.00 0.00 0.00 68 1019.5
20260507082528 67 61 7.0 13.0 0.00 0.00 0.00 68 1019.4
20260507082030 67 55 7.0 12.0 0.00 0.00 0.00 68 1019.4
20260507081554 67 30 8.0 13.0 0.00 0.00 0.00 67 1019.3
20260507081030 67 45 6.0 13.0 0.00 0.00 0.00 68 1019.3
20260507080529 67 21 6.0 14.0 0.00 0.00 0.00 69 1019.2
20260507080051 67 57 6.0 14.0 0.00 0.00 0.00 70 1019.2
20260507075530 67 14 6.0 12.0 0.00 0.00 0.00 71 1019.2
20260507075031 66 75 6.0 14.0 0.00 0.00 0.00 71 1019.2
20260507074544 66 47 6.0 15.0 0.00 0.00 0.00 71 1019.2
20260507074031 66 43 6.0 15.0 0.00 0.00 0.00 69 1019.3
20260507073530 66 10 8.0 15.0 0.00 0.00 0.00 68 1019.2
20260507073058 66 51 6.0 14.0 0.00 0.00 0.00 68 1019.2
20260507072529 66 26 8.0 13.0 0.00 0.00 0.00 67 1019.2
20260507072029 66 67 7.0 13.0 0.00 0.00 0.00 67 1019.1
20260507071546 66 54 8.0 13.0 0.00 0.00 0.00 67 1019.2
20260507071030 67 52 7.0 12.0 0.00 0.00 0.00 67 1019.2
20260507070530 67 42 6.0 12.0 0.00 0.00 0.00 69 1019.2
20260507070121 67 22 5.0 11.0 0.00 0.00 0.00 70 1019.2
20260507065529 67 25 6.0 11.0 0.00 0.00 0.00 71 1019.1
20260507065029 66 48 6.0 14.0 0.00 0.00 0.00 72 1019.3
20260507064549 66 22 5.0 14.0 0.00 0.00 0.00 72 1019.2
20260507064030 66 34 6.0 12.0 0.00 0.00 0.00 72 1019.2
20260507063530 66 48 7.0 12.0 0.00 0.00 0.00 72 1019.3
20260507063041 66 36 5.0 11.0 0.00 0.00 0.00 73 1019.2
20260507062531 65 47 5.0 12.0 0.00 0.00 0.00 74 1019.2
20260507062029 65 29 5.0 12.0 0.00 0.00 0.00 74 1019.2
20260507061542 65 68 5.0 11.0 0.00 0.00 0.00 74 1019.2
20260507061029 65 69 4.0 12.0 0.00 0.00 0.00 75 1019.2
20260507060529 65 69 4.0 12.0 0.00 0.00 0.00 74 1019.2
20260507060040 64 32 6.0 12.0 0.00 0.00 0.00 74 1019.3
20260507055530 64 44 5.0 12.0 0.00 0.00 0.00 74 1019.2
20260507055031 64 50 5.0 12.0 0.00 0.00 0.00 74 1019.2
20260507054552 64 53 6.0 12.0 0.00 0.00 0.00 74 1019.2
20260507054030 64 25 4.0 12.0 0.00 0.00 0.00 75 1019.2
20260507053530 63 57 6.0 12.0 0.00 0.00 0.00 75 1019.0